Location: Krakow
(50.0830°N, 19.9170°E)
Time: 03:50:25
(UTC+02:00)

Courier 1B Rocket - Pass Details

Date: 15 December 2023
Orbit: 920 x 1201 km, 28.2° (Epoch: 14 September)

Event Time Altitude Azimuth Distance (km) Brightness Sun altitude
Rises 08:50:13 0° 224° (SW) 4,021 8.3 8.1°
Reaches altitude 10° 08:55:33 10° 193° (SSW) 2,997 8.2 8.6°
Maximum altitude 08:57:42 11° 176° (S) 2,861 8.6 8.8°
Drops below altitude 10° 08:59:50 10° 159° (SSE) 2,938 9.5 9.0°
Sets 09:04:53 0° 128° (SE) 3,815 9.7 9.5°
